Meteo pe oră la Dziadki

Astăzi, 3 Martie, Miercuri

Timp Temperatura Precipitaţii Vânt Presiune Umiditate
00:00 -1°C° 0 mm 2 m/s 762 mmHg 91%
01:00 +1°C° 0 mm 1 m/s 762 mmHg 89%
02:00 +1°C° 0 mm 1 m/s 762 mmHg 88%
03:00 +1°C° 0 mm 1 m/s 762 mmHg 86%
04:00 +1°C° 0 mm 1 m/s 761 mmHg 85%
05:00 +1°C° 0 mm 1 m/s 761 mmHg 84%
06:00 +2°C° 0 mm 1 m/s 761 mmHg 82%
07:00 +2°C° 0 mm 1 m/s 761 mmHg 81%
08:00 +3°C° 0 mm 1 m/s 761 mmHg 75%
09:00 +4°C° 0 mm 2 m/s 760 mmHg 70%
10:00 +5°C° 0 mm 2 m/s 760 mmHg 64%
11:00 +5°C° 0 mm 3 m/s 759 mmHg 63%
12:00 +7°C° 0 mm 3 m/s 759 mmHg 63%
13:00 +8°C° 0 mm 3 m/s 758 mmHg 62%
14:00 +8°C° 0 mm 3 m/s 757 mmHg 63%
15:00 +8°C° 0 mm 3 m/s 756 mmHg 65%
16:00 +8°C° 0 mm 3 m/s 756 mmHg 66%
17:00 +5°C° 0 mm 3 m/s 755 mmHg 72%
18:00 +4°C° 0 mm 3 m/s 755 mmHg 77%
19:00 +2°C° 0 mm 3 m/s 754 mmHg 83%
20:00 +2°C° 0 mm 3 m/s 753 mmHg 85%
21:00 +2°C° 0 mm 3 m/s 753 mmHg 87%
22:00 +1°C° 0 mm 3 m/s 752 mmHg 89%
23:00 +1°C° 0 mm 3 m/s 751 mmHg 89%

Mâine, 4 Martie, Joi

Timp Temperatura Precipitaţii Vânt Presiune Umiditate
00:00 +1°C° 0 mm 3 m/s 751 mmHg 90%
01:00 +1°C° 0 mm 3 m/s 750 mmHg 91%
02:00 +1°C° 0 mm 3 m/s 749 mmHg 92%
03:00 0°C° 0 mm 4 m/s 748 mmHg 93%
04:00 0°C° 0 mm 4 m/s 747 mmHg 94%
05:00 0°C° 0 mm 4 m/s 747 mmHg 94%
06:00 0°C° 0 mm 4 m/s 747 mmHg 94%
07:00 +1°C° 0 mm 4 m/s 746 mmHg 94%
08:00 +1°C° 0 mm 5 m/s 746 mmHg 88%
09:00 +2°C° 0 mm 5 m/s 746 mmHg 83%
10:00 +3°C° 0 mm 6 m/s 746 mmHg 78%
11:00 +2°C° 0 mm 6 m/s 746 mmHg 78%
12:00 +2°C° 0 mm 5 m/s 746 mmHg 79%
13:00 +2°C° 0 mm 5 m/s 746 mmHg 79%
14:00 +1°C° 0.1 mm 5 m/s 746 mmHg 84%
15:00 +1°C° 0.1 mm 5 m/s 746 mmHg 88%
16:00 0°C° 0.1 mm 5 m/s 746 mmHg 93%
17:00 -1°C° 0.1 mm 4 m/s 747 mmHg 89%
18:00 -1°C° 0.1 mm 4 m/s 747 mmHg 85%
19:00 -2°C° 0.1 mm 4 m/s 748 mmHg 81%
20:00 -2°C° 0 mm 4 m/s 748 mmHg 81%
21:00 -3°C° 0 mm 4 m/s 748 mmHg 81%
22:00 -3°C° 0 mm 4 m/s 748 mmHg 82%
23:00 -4°C° 0 mm 3 m/s 749 mmHg 82%

Poimâine, 5 Martie, Vineri

Timp Temperatura Precipitaţii Vânt Presiune Umiditate
00:00 -4°C° 0 mm 3 m/s 749 mmHg 83%
01:00 -4°C° 0 mm 3 m/s 749 mmHg 83%
02:00 -4°C° 0 mm 3 m/s 749 mmHg 82%
03:00 -4°C° 0 mm 3 m/s 750 mmHg 82%
04:00 -4°C° 0 mm 3 m/s 750 mmHg 81%
05:00 -4°C° 0 mm 3 m/s 750 mmHg 77%
06:00 -4°C° 0 mm 3 m/s 750 mmHg 73%
07:00 -4°C° 0 mm 3 m/s 751 mmHg 68%
08:00 -2°C° 0 mm 3 m/s 751 mmHg 62%
09:00 -1°C° 0 mm 3 m/s 751 mmHg 55%
10:00 0°C° 0 mm 3 m/s 751 mmHg 48%
11:00 +1°C° 0 mm 3 m/s 752 mmHg 46%
12:00 +1°C° 0 mm 3 m/s 752 mmHg 44%
13:00 +2°C° 0 mm 3 m/s 752 mmHg 41%
14:00 0°C° 0.2 mm 4 m/s 752 mmHg 47%
15:00 0°C° 0.2 mm 4 m/s 752 mmHg 52%
16:00 -1°C° 0.2 mm 4 m/s 752 mmHg 57%
17:00 -1°C° 0.1 mm 3 m/s 753 mmHg 62%
18:00 -1°C° 0.1 mm 3 m/s 754 mmHg 66%
19:00 -2°C° 0.1 mm 2 m/s 754 mmHg 71%
20:00 -4°C° 0 mm 3 m/s 755 mmHg 70%
21:00 -4°C° 0 mm 3 m/s 755 mmHg 69%
22:00 -4°C° 0 mm 3 m/s 756 mmHg 68%
23:00 -5°C° 0 mm 3 m/s 756 mmHg 67%

6 Martie, Sâmbătă

Timp Temperatura Precipitaţii Vânt Presiune Umiditate
00:00 -5°C° 0 mm 3 m/s 756 mmHg 65%
01:00 -5°C° 0 mm 4 m/s 757 mmHg 64%
02:00 -5°C° 0 mm 3 m/s 757 mmHg 62%
03:00 -5°C° 0 mm 3 m/s 757 mmHg 59%
04:00 -5°C° 0 mm 3 m/s 758 mmHg 57%
05:00 -5°C° 0 mm 3 m/s 758 mmHg 59%
06:00 -5°C° 0 mm 3 m/s 759 mmHg 61%
07:00 -4°C° 0 mm 2 m/s 759 mmHg 62%
08:00 -4°C° 0 mm 3 m/s 759 mmHg 58%
09:00 -2°C° 0 mm 3 m/s 759 mmHg 53%
10:00 -1°C° 0 mm 3 m/s 759 mmHg 49%
11:00 -1°C° 0 mm 4 m/s 759 mmHg 48%
12:00 -1°C° 0 mm 4 m/s 759 mmHg 48%
13:00 0°C° 0 mm 5 m/s 759 mmHg 48%
14:00 0°C° 0 mm 5 m/s 758 mmHg 47%
15:00 0°C° 0 mm 5 m/s 758 mmHg 47%
16:00 0°C° 0 mm 4 m/s 757 mmHg 47%
17:00 -1°C° 0 mm 5 m/s 756 mmHg 50%
18:00 -2°C° 0 mm 5 m/s 756 mmHg 54%
19:00 -4°C° 0 mm 5 m/s 755 mmHg 57%
20:00 -3°C° 0 mm 6 m/s 755 mmHg 58%
21:00 -3°C° 0 mm 6 m/s 754 mmHg 59%
22:00 -3°C° 0 mm 7 m/s 754 mmHg 60%
23:00 -3°C° 0 mm 7 m/s 753 mmHg 64%

7 Martie, Duminică

Timp Temperatura Precipitaţii Vânt Presiune Umiditate
00:00 -3°C° 0 mm 7 m/s 752 mmHg 68%
01:00 -4°C° 0 mm 8 m/s 752 mmHg 72%
02:00 -4°C° 0.1 mm 8 m/s 751 mmHg 78%
03:00 -4°C° 0.1 mm 8 m/s 750 mmHg 84%
04:00 -4°C° 0.1 mm 8 m/s 750 mmHg 90%
05:00 -4°C° 0.1 mm 8 m/s 749 mmHg 90%
06:00 -4°C° 0.1 mm 8 m/s 749 mmHg 90%
07:00 -4°C° 0.1 mm 8 m/s 748 mmHg 90%
08:00 -2°C° 0.1 mm 8 m/s 748 mmHg 88%
09:00 -2°C° 0.1 mm 8 m/s 748 mmHg 86%
10:00 -1°C° 0.1 mm 8 m/s 748 mmHg 83%
11:00 -1°C° 0 mm 8 m/s 748 mmHg 83%
12:00 -1°C° 0 mm 8 m/s 747 mmHg 82%
13:00 -1°C° 0 mm 8 m/s 747 mmHg 81%
14:00 -1°C° 0.3 mm 8 m/s 747 mmHg 85%
15:00 -2°C° 0.3 mm 8 m/s 747 mmHg 88%
16:00 -2°C° 0.3 mm 8 m/s 747 mmHg 92%
17:00 -3°C° 0.8 mm 6 m/s 747 mmHg 90%
18:00 -4°C° 0.8 mm 5 m/s 747 mmHg 88%
19:00 -4°C° 0.8 mm 4 m/s 747 mmHg 86%
20:00 -4°C° 0 mm 4 m/s 748 mmHg 81%
21:00 -5°C° 0 mm 3 m/s 748 mmHg 77%
22:00 -6°C° 0 mm 3 m/s 749 mmHg 72%
23:00 -6°C° 0 mm 3 m/s 749 mmHg 74%

8 Martie, Luni

Timp Temperatura Precipitaţii Vânt Presiune Umiditate
00:00 -6°C° 0 mm 3 m/s 749 mmHg 76%
01:00 -7°C° 0 mm 3 m/s 749 mmHg 77%
02:00 -7°C° 0 mm 4 m/s 750 mmHg 79%
03:00 -7°C° 0 mm 4 m/s 750 mmHg 81%
04:00 -7°C° 0 mm 5 m/s 750 mmHg 83%
05:00 -7°C° 0.1 mm 5 m/s 751 mmHg 81%
06:00 -7°C° 0.1 mm 5 m/s 751 mmHg 79%
07:00 -8°C° 0.1 mm 6 m/s 752 mmHg 76%
08:00 -6°C° 0 mm 6 m/s 752 mmHg 71%
09:00 -6°C° 0 mm 6 m/s 753 mmHg 65%
10:00 -5°C° 0 mm 6 m/s 754 mmHg 59%
11:00 -5°C° 0 mm 6 m/s 754 mmHg 57%
12:00 -5°C° 0 mm 6 m/s 755 mmHg 54%
13:00 -4°C° 0 mm 6 m/s 755 mmHg 52%
14:00 -5°C° 0 mm 5 m/s 755 mmHg 53%
15:00 -5°C° 0 mm 5 m/s 756 mmHg 54%
16:00 -5°C° 0 mm 5 m/s 756 mmHg 56%
17:00 -5°C° 0 mm 4 m/s 756 mmHg 61%
18:00 -5°C° 0 mm 3 m/s 757 mmHg 67%
19:00 -5°C° 0 mm 2 m/s 757 mmHg 73%
20:00 -5°C° 0 mm 2 m/s 758 mmHg 74%
21:00 -5°C° 0 mm 2 m/s 758 mmHg 76%
22:00 -4°C° 0 mm 1 m/s 758 mmHg 77%
23:00 -4°C° 0 mm 1 m/s 759 mmHg 78%
Arată mai mult

Formular de consimțământ

Meteoprog și furnizorii noștri de servicii pot stoca și accesa date personale, precum cookies, identificatori de dispozitiv sau alte tehnologii similare pe dispozitivul dumneavoastră și procesa astfel de date pentru a personaliza conținutul și reclamele, dar și pentru a oferi caracteristici de social media și pentru a analiza traficul.

  • Stocarea și/sau accesarea informațiilor pe dispozitivul dumneavoastră

    Cookies, identificatori de dispozitiv sau alte informații pot fi stocate sau accesate pe dispozitiv în scopurile indicate mai sus.

  • Reclame și conținut personalizat, evaluarea reclamelor și a conținutului, informații despre audiențe și dezvoltarea produselor

    Reclamele și conținutul pot fi personalizate pe baza unui profil. Pot fi adăugate date suplimentare pentru a personaliza mai bine reclamele și conținutul. Performanța reclamelor și conținutului poate fi măsurată. Pot fi obținute informații despre utilizatorii care au văzut reclamele și conținutul. Aceste date pot fi utilizate pentru a dezvolta sau îmbunătăți experiența utilizatorilor, sistemele și software-ul.

Dând clic pe ‘Sunt de acord’, permiteți utilizarea cookie-urilor menționate, a identificatorilor de dispozitiv, balizelor web sau altor tehnologii similare. Setările pot fi modificate din browser-ul dispozitivului dumneavoastră.

În anumite scopuri, interesele legitime pot prima asupra consimțământului. Puteți citi mai multe informații în acest sens în Politica privind Confidențialitatea Datelor și Cookie.